Weather History for Muscatine, IA

Change the Weather History Date:

Sunday, October 7, 2012

  Actual Average Record
Temperature  
Mean Temperature 42 °F -  
Max Temperature 55 °F 68 °F 87 °F (2007)
Min Temperature 30 °F 43 °F 24 °F (1988)
Degree Days  
Heating Degree Days 22    
Moisture  
Dew Point 17 °F    
Average Humidity 42    
Maximum Humidity 70    
Minimum Humidity 10    
Precipitation  
Precipitation 0.00 in - - ()
Sea Level Pressure  
Sea Level Pressure 30.19 in    
Wind  
Wind Speed 4 mph (West)    
Max Wind Speed 13 mph    
Max Gust Speed 24 mph    
Visibility 10 miles    
Events      
Averages and records for this station are not official NWS values.
T = Trace of Precipitation, MM = Missing Value Source: NWS Daily Summary

Daily Weather History Graph

Daily Weather History Graph

Search for Another Location

Airport:

Trip Planner

Search our weather history database for the weather conditions in past years. The results will help you decide how hot, cold, wet, or windy it might be!

Date:

Astronomy

Oct. 07, 2012 Rise Set
Actual Time 7:08 AM CDT 6:35 PM CDT
Civil Twilight 6:40 AM CDT 7:03 PM CDT
Nautical Twilight 6:08 AM CDT 7:35 PM CDT
Astronomical Twilight 5:36 AM CDT 8:07 PM CDT
Moon 11:44 PM CDT (10/7) 1:48 PM CDT (10/7)
Length of Visible Light 12h 22m
Length of Day
11h 27m
Waning Gibbous, 56% of the Moon is Illuminated
Oct 7
Waning Gibbous
Oct 8
Last Quarter
Oct 15
New
Oct 21
First Quarter
Oct 29
Full

Hourly Weather History & Observations

Time (CDT) Temp. Windchill Dew Point Humidity Pressure Visibility Wind Dir Wind Speed Gust Speed Precip Events Conditions
12:15 AM 42.8 °F - 26.6 °F 53% 30.24 in 10.0 mi Calm Calm - N/A   Overcast
12:35 AM 41.0 °F 39.0 °F 26.6 °F 57% 30.24 in 10.0 mi West 3.5 mph - N/A   Overcast
12:55 AM 41.0 °F 39.0 °F 26.6 °F 57% 30.24 in 10.0 mi West 3.5 mph - N/A   Overcast
1:15 AM 41.0 °F 39.0 °F 28.4 °F 61% 30.24 in 10.0 mi WNW 3.5 mph - N/A   Overcast
1:35 AM 41.0 °F 39.0 °F 26.6 °F 57% 30.24 in 10.0 mi NW 3.5 mph - N/A   Overcast
1:55 AM 41.0 °F - 26.6 °F 57% 30.24 in 10.0 mi Calm Calm - N/A   Overcast
2:15 AM 41.0 °F - 26.6 °F 57% 30.24 in 10.0 mi Calm Calm - N/A   Overcast
2:35 AM 41.0 °F 38.0 °F 26.6 °F 57% 30.24 in 10.0 mi WNW 4.6 mph - N/A   Overcast
2:55 AM 41.0 °F 39.0 °F 26.6 °F 57% 30.23 in 10.0 mi WNW 3.5 mph - N/A   Overcast
3:15 AM 39.2 °F 37.0 °F 26.6 °F 61% 30.23 in 10.0 mi WNW 3.5 mph - N/A   Overcast
3:35 AM 39.2 °F 35.9 °F 26.6 °F 61% 30.23 in 10.0 mi WNW 4.6 mph - N/A   Overcast
3:55 AM 39.2 °F 35.9 °F 26.6 °F 61% 30.22 in 10.0 mi WNW 4.6 mph - N/A   Overcast
4:15 AM 39.2 °F 35.9 °F 26.6 °F 61% 30.22 in 10.0 mi WNW 4.6 mph - N/A   Overcast
4:35 AM 39.2 °F 35.9 °F 26.6 °F 61% 30.22 in 10.0 mi WNW 4.6 mph - N/A   Overcast
4:55 AM 39.2 °F 35.9 °F 24.8 °F 56% 30.22 in 10.0 mi West 4.6 mph - N/A   Overcast
5:15 AM 39.2 °F 35.0 °F 24.8 °F 56% 30.22 in 10.0 mi West 5.8 mph - N/A   Overcast
5:35 AM 37.4 °F - 24.8 °F 60% 30.22 in 10.0 mi Calm Calm - N/A   Overcast
5:55 AM 37.4 °F 34.9 °F 24.8 °F 60% 30.22 in 10.0 mi WNW 3.5 mph - N/A   Overcast
6:15 AM 37.4 °F 33.8 °F 24.8 °F 60% 30.22 in 10.0 mi WNW 4.6 mph - N/A   Overcast
6:35 AM 35.6 °F 31.7 °F 24.8 °F 65% 30.23 in 10.0 mi WNW 4.6 mph - N/A   Mostly Cloudy
6:55 AM 33.8 °F 28.6 °F 24.8 °F 70% 30.23 in 10.0 mi WNW 5.8 mph - N/A   Mostly Cloudy
7:15 AM 33.8 °F 28.6 °F 24.8 °F 70% 30.23 in 10.0 mi WNW 5.8 mph - N/A   Mostly Cloudy
7:35 AM 33.8 °F 28.6 °F 24.8 °F 70% 30.23 in 10.0 mi WNW 5.8 mph - N/A   Scattered Clouds
7:55 AM 35.6 °F 32.8 °F 24.8 °F 65% 30.23 in 10.0 mi WNW 3.5 mph - N/A   Scattered Clouds
8:15 AM 37.4 °F 32.8 °F 24.8 °F 60% 30.24 in 10.0 mi WNW 5.8 mph - N/A   Scattered Clouds
8:35 AM 37.4 °F 32.8 °F 24.8 °F 60% 30.24 in 10.0 mi WNW 5.8 mph - N/A   Clear
8:55 AM 39.2 °F 34.2 °F 23.0 °F 52% 30.24 in 10.0 mi WNW 6.9 mph - N/A   Clear
9:15 AM 42.8 °F 37.5 °F 21.2 °F 42% 30.25 in 10.0 mi NW 9.2 mph - N/A   Clear
9:55 AM 44.6 °F 39.2 °F 19.4 °F 37% 30.25 in 10.0 mi WNW 10.4 mph - N/A   Clear
10:15 AM 46.4 °F 41.5 °F 17.6 °F 32% 30.25 in 10.0 mi WNW 10.4 mph - N/A   Scattered Clouds
10:35 AM 48.2 °F - 12.2 °F 24% 30.25 in 10.0 mi West 10.4 mph - N/A   Clear
10:55 AM 46.4 °F 41.5 °F 12.2 °F 25% 30.25 in 10.0 mi West 10.4 mph 24.2 mph N/A   Mostly Cloudy
11:15 AM 46.4 °F 43.5 °F 10.4 °F 23% 30.25 in 10.0 mi WNW 5.8 mph 18.4 mph N/A   Mostly Cloudy
11:35 AM 48.2 °F - 10.4 °F 22% 30.24 in 10.0 mi NW 8.1 mph - N/A   Scattered Clouds
11:55 AM 48.2 °F - 10.4 °F 22% 30.24 in 10.0 mi Calm Calm - N/A   Scattered Clouds
12:35 PM 50.0 °F - 8.6 °F 19% 30.23 in 10.0 mi WNW 11.5 mph 18.4 mph N/A   Clear
12:55 PM 51.8 °F - 8.6 °F 18% 30.23 in 10.0 mi WNW 5.8 mph 16.1 mph N/A   Clear
1:15 PM 51.8 °F - 6.8 °F 16% 30.22 in 10.0 mi West 11.5 mph 16.1 mph N/A   Clear
1:35 PM 51.8 °F - 6.8 °F 16% 30.20 in 10.0 mi NNW 4.6 mph - N/A   Clear
1:55 PM 51.8 °F - 5.0 °F 15% 30.19 in 10.0 mi NW 5.8 mph - N/A   Clear
2:15 PM 53.6 °F - 5.0 °F 14% 30.18 in 10.0 mi WNW 3.5 mph - N/A   Clear
2:35 PM 53.6 °F - 3.2 °F 13% 30.18 in 10.0 mi West 9.2 mph 18.4 mph N/A   Clear
2:55 PM 53.6 °F - 1.4 °F 12% 30.17 in 10.0 mi WSW 3.5 mph - N/A   Clear
3:15 PM 53.6 °F - 3.2 °F 13% 30.16 in 10.0 mi SW 11.5 mph - N/A   Clear
3:35 PM 53.6 °F - -0.4 °F 11% 30.15 in 10.0 mi WNW 10.4 mph 17.3 mph N/A   Clear
3:55 PM 55.4 °F - 1.4 °F 11% 30.14 in 10.0 mi West 12.7 mph - N/A   Clear
4:15 PM 53.6 °F - -2.2 °F 10% 30.14 in 10.0 mi West 8.1 mph - N/A   Clear
4:35 PM 53.6 °F - -0.4 °F 11% 30.13 in 10.0 mi WSW 6.9 mph - N/A   Clear
4:55 PM 53.6 °F - -0.4 °F 11% 30.14 in 10.0 mi SW 6.9 mph - N/A   Clear
5:15 PM 53.6 °F - 1.4 °F 12% 30.14 in 10.0 mi WSW 8.1 mph - N/A   Clear
5:35 PM 53.6 °F - -0.4 °F 11% 30.13 in 10.0 mi WSW 8.1 mph - N/A   Clear
5:55 PM 51.8 °F - 3.2 °F 14% 30.13 in 10.0 mi WSW 6.9 mph - N/A   Clear
6:15 PM 51.8 °F - 6.8 °F 16% 30.13 in 10.0 mi SW 4.6 mph - N/A   Clear
6:35 PM 48.2 °F - 10.4 °F 22% 30.13 in 10.0 mi SSW 3.5 mph - N/A   Clear
6:55 PM 44.6 °F 43.1 °F 12.2 °F 27% 30.13 in 10.0 mi SSW 3.5 mph - N/A   Clear
7:15 PM 42.8 °F 41.1 °F 15.8 °F 34% 30.13 in 10.0 mi South 3.5 mph - N/A   Clear
7:55 PM 39.2 °F 35.9 °F 17.6 °F 42% 30.13 in 10.0 mi South 4.6 mph - N/A   Clear
8:15 PM 37.4 °F 34.9 °F 19.4 °F 48% 30.13 in 10.0 mi South 3.5 mph - N/A   Clear
8:35 PM 37.4 °F - 21.2 °F 52% 30.13 in 10.0 mi Calm Calm - N/A   Clear
8:55 PM 37.4 °F - 21.2 °F 52% 30.13 in 10.0 mi Calm Calm - N/A   Clear
9:15 PM 35.6 °F - 21.2 °F 56% 30.13 in 10.0 mi Calm Calm - N/A   Clear
9:35 PM 35.6 °F - 21.2 °F 56% 30.13 in 10.0 mi Calm Calm - N/A   Clear
9:55 PM 33.8 °F - 21.2 °F 60% 30.13 in 10.0 mi Calm Calm - N/A   Clear
10:15 PM 33.8 °F - 19.4 °F 56% 30.13 in 10.0 mi Calm Calm - N/A   Clear
10:35 PM 33.8 °F - 21.2 °F 60% 30.13 in 10.0 mi Calm Calm - N/A   Clear
10:55 PM 33.8 °F - 21.2 °F 60% 30.13 in 10.0 mi Calm Calm - N/A   Clear
11:15 PM 30.2 °F - 21.2 °F 69% 30.13 in 10.0 mi Calm Calm - N/A   Clear
11:35 PM 30.2 °F - 21.2 °F 69% 30.12 in 10.0 mi Calm Calm - N/A   Clear
11:55 PM 32.0 °F - 21.2 °F 64% 30.12 in 10.0 mi Calm Calm - N/A   Clear